Wind_Speed
3 6 5 1 3 5 5 3 5 3 4 5 4 3 3 2 4 4 2 4 1 0 6 5 6 11 14 17 16 9 3 6 9 8 9 9 7 8 7 8 9 8 8 8 13 18 18 15 13 12 11 9 8 7 6 5 6 8 10 10 10 10 10 10 10 10 12 13 14 14 13 14 14 13 13 14 15 16 17 17 18 19 19 19 19 20
5 7 2 5 6 4 2 3 5 4 5 4 3 1 2 2 5 4 1 4 3 0 5 2 4 12 14 15 14 7 4 7 7 7 9 9 8 7 8 10 9 6 4 3 10 17 17 15 15 14 13 11 10 8 7 5 6 8 9 10 10 10 10 9 9 9 11 11 11 12 12 13 13 13 13 14 15 16 17 17 18 19 19 20 20 20
7 4 4 5 3 4 4 4 5 5 5 3 2 1 2 2 4 5 2 4 3 0 4 4 6 13 14 12 11 7 6 7 6 6 8 7 8 8 9 10 9 7 5 5 9 15 18 17 16 16 15 13 11 9 8 6 6 7 8 9 9 9 10 9 9 9 10 10 10 11 11 12 12 12 13 14 16 16 16 16 16 17 18 19 19 20
5 1 2 1 4 6 6 4 5 5 3 2 3 2 3 3 1 3 3 4 2 1 4 5 5 10 10 8 8 6 5 6 6 7 8 7 8 9 8 8 8 9 8 7 7 11 17 18 18 19 18 15 12 10 9 6 5 6 8 9 9 10 10 9 9 9 9 10 10 11 12 12 11 12 14 15 17 18 18 18 17 18 18 19 19 19
4 1 2 5 3 6 6 5 5 4 1 2 2 3 2 3 2 4 4 5 3 1 2 4 5 6 5 5 7 5 3 6 5 5 8 7 7 7 7 8 9 9 8 8 8 10 15 18 21 22 19 16 13 12 10 7 5 6 7 9 9 10 10 9 9 9 9 10 11 12 13 14 14 15 17 18 20 21 20 21 20 20 20 20 20 20
3 1 3 3 4 6 7 4 2 4 0 4 2 5 5 4 4 5 4 4 4 2 1 3 4 5 5 5 8 5 6 8 5 5 9 8 6 6 7 10 10 8 8 7 8 10 15 19 21 21 20 18 16 13 10 7 5 5 6 8 9 10 10 10 9 9 9 10 11 13 14 15 16 17 18 19 20 21 22 22 22 21 21 20 21 20
1 1 3 3 4 7 6 2 1 4 4 2 2 4 4 3 2 3 2 3 2 2 3 3 2 4 7 7 9 5 6 10 8 7 9 9 7 6 7 9 9 9 8 7 7 9 13 17 19 20 21 21 18 14 10 7 5 5 6 8 9 10 10 10 9 9 9 10 10 11 12 12 13 15 17 18 19 20 21 22 22 22 21 21 21 21
1 2 6 5 6 6 3 1 2 5 5 1 2 4 4 3 4 3 3 3 1 3 4 4 3 2 6 7 7 4 6 10 10 9 9 7 7 8 9 10 10 10 9 7 7 8 12 17 20 22 23 22 18 13 10 8 6 5 6 8 9 10 10 10 9 9 9 9 10 10 11 12 12 14 16 18 19 19 20 22 22 22 22 21 20 21
1 2 3 3 5 3 1 2 5 6 2 3 2 4 3 3 4 3 4 3 1 3 4 3 2 1 6 7 5 4 4 8 9 9 9 7 7 8 9 10 10 11 8 7 7 9 12 18 22 23 23 20 17 14 11 9 7 6 7 8 10 10 10 10 9 9 8 9 10 10 11 12 13 14 16 17 18 19 20 22 23 23 23 22 21 21
0 0 3 4 4 1 3 3 5 4 1 1 4 3 3 3 3 3 4 2 2 3 4 5 1 0 5 6 5 2 3 7 8 8 8 8 8 7 8 9 10 9 6 6 7 10 15 19 22 23 20 19 17 14 11 9 8 8 7 8 10 11 10 10 9 8 8 9 9 10 11 12 14 15 16 17 18 19 20 22 23 24 24 24 23 22
1 1 2 3 2 3 2 1 2 2 1 4 4 2 3 3 3 3 2 3 3 2 6 5 1 1 3 6 5 4 5 6 6 7 8 7 8 8 8 8 8 7 5 5 6 9 14 17 19 20 19 19 17 14 12 11 10 9 8 9 11 11 11 10 9 8 8 9 9 10 10 12 13 15 16 17 18 19 20 21 23 24 24 24 23 23
2 2 1 1 1 1 2 2 1 2 3 4 3 2 2 3 3 3 4 4 2 4 5 4 2 1 2 6 6 6 7 6 7 8 9 8 8 8 7 7 7 6 5 5 5 7 9 12 15 18 19 19 17 16 15 13 12 11 10 10 12 12 11 10 9 8 8 8 9 10 10 12 13 14 14 15 17 18 19 21 23 24 25 25 24 24
1 2 2 1 0 1 2 1 3 4 4 4 4 5 4 4 4 3 4 3 1 5 3 1 3 2 6 9 10 11 13 10 9 9 9 8 8 8 8 8 6 5 5 5 5 6 7 9 14 17 19 20 19 19 17 15 14 12 10 10 12 12 11 10 9 9 9 9 9 10 10 12 13 13 13 14 16 17 18 19 21 23 24 25 25 25
3 4 3 2 0 1 4 3 2 3 4 4 3 3 3 2 4 3 4 3 4 5 3 1 2 3 5 7 10 13 13 11 7 8 8 8 8 9 9 8 8 8 7 6 6 6 7 10 15 18 20 21 21 21 19 16 15 13 11 10 12 12 11 10 10 9 9 9 9 9 10 12 12 13 13 13 14 16 17 18 19 21 22 23 25 25
2 4 3 2 1 2 3 3 2 2 2 1 2 4 3 3 2 3 4 2 4 6 5 3 1 3 3 5 8 10 10 8 5 6 7 7 9 8 8 8 9 9 8 6 6 7 9 13 16 18 20 21 22 21 19 17 16 14 11 10 11 11 10 10 10 10 10 10 10 10 10 11 12 12 12 13 14 15 16 17 18 19 21 22 23 24
2 4 5 2 2 2 2 1 2 4 3 1 2 3 1 3 4 1 3 4 1 3 4 3 3 5 4 9 10 5 6 7 5 5 5 7 8 5 6 8 8 8 8 6 6 7 10 14 17 19 20 21 21 21 20 18 17 14 11 9 10 11 10 10 10 10 10 10 10 10 10 11 11 12 12 12 13 14 16 17 18 19 20 21 22 23
2 5 5 3 2 4 1 2 1 2 1 1 1 1 2 3 5 3 1 0 3 1 4 2 4 6 4 8 10 7 7 7 6 6 6 7 7 5 6 8 7 8 8 7 7 7 9 12 17 20 21 21 21 21 20 19 17 13 10 8 9 10 10 10 10 10 10 11 11 11 10 10 11 11 12 13 14 15 16 17 18 19 20 21 22 22
1 4 5 1 1 1 1 1 3 2 2 2 1 3 2 2 4 3 0 4 4 1 4 2 5 7 3 4 7 8 7 8 8 7 7 8 7 6 7 8 8 9 8 8 8 7 9 11 16 20 22 23 22 22 20 18 16 12 9 8 8 9 9 10 10 10 10 11 12 12 11 11 11 11 11 12 13 15 16 17 18 19 20 21 21 21
2 2 6 1 2 3 3 2 3 3 2 2 2 2 2 1 1 1 1 1 2 3 5 5 5 5 3 4 6 6 6 8 9 8 7 8 8 7 8 8 9 9 8 8 7 6 7 11 16 19 21 22 22 21 19 17 15 12 9 8 8 9 9 10 10 10 10 11 12 12 11 11 10 10 11 12 13 14 15 17 18 19 20 20 20 20
2 1 4 3 2 2 3 1 1 2 2 3 2 2 2 2 4 1 1 2 1 2 4 5 5 4 6 6 5 8 9 8 9 7 7 9 8 8 8 8 8 8 7 7 7 6 7 11 17 20 21 22 22 21 18 17 16 13 10 8 9 9 10 10 10 10 10 11 12 11 11 11 10 10 11 12 13 14 15 16 18 19 20 20 20 20
2 2 3 5 3 2 2 2 4 4 2 1 1 1 1 1 2 1 0 3 3 2 2 3 5 7 8 5 6 10 11 8 8 7 7 8 8 8 8 8 8 8 8 8 7 7 7 11 16 18 20 20 20 19 19 18 17 13 10 9 9 10 10 11 11 10 10 11 11 11 11 11 10 10 11 12 13 14 15 16 17 19 20 20 20 20
1 2 3 4 4 3 4 4 3 5 5 4 4 4 3 3 3 1 3 2 2 2 4 2 4 11 8 3 6 9 8 8 7 6 7 9 9 10 9 8 9 8 8 9 7 6 6 9 13 16 17 18 18 19 20 19 18 15 12 10 9 10 11 11 11 10 10 11 11 11 11 10 10 10 11 12 13 14 15 16 17 19 20 20 20 20
1 3 0 5 5 5 5 3 0 2 3 3 2 2 4 4 5 4 3 3 1 1 1 3 2 10 8 5 6 7 6 7 6 5 8 9 9 10 10 10 9 8 9 8 7 6 7 9 12 14 16 18 19 20 20 20 19 17 13 11 10 11 11 11 11 10 10 11 11 11 10 10 10 10 11 12 13 14 15 16 17 18 20 20 20 20
1 2 1 5 5 4 4 3 2 2 2 1 2 2 4 3 4 5 5 4 2 3 2 2 3 10 8 3 5 5 4 6 6 6 8 9 9 10 10 10 9 8 9 8 7 6 6 8 9 11 15 17 18 19 20 21 20 18 14 12 11 11 10 11 11 10 10 10 11 11 10 10 10 9 10 11 12 14 15 16 17 18 19 19 19 19
1 0 1 4 6 7 6 6 5 3 0 3 3 1 2 4 6 4 3 3 2 5 7 4 5 10 7 1 2 5 5 7 9 7 7 8 9 10 10 9 9 8 9 8 7 5 4 6 8 11 15 16 18 19 20 21 21 19 16 13 11 10 10 11 11 10 10 10 10 10 9 9 9 9 10 10 12 14 15 16 17 18 18 19 19 20
2 2 2 1 2 4 5 6 5 3 2 2 1 2 2 4 7 3 2 3 3 4 6 6 7 10 11 11 11 10 8 10 12 10 7 8 9 10 10 9 9 8 9 10 8 6 5 6 7 11 14 16 18 19 20 21 21 19 17 14 12 11 10 11 11 10 10 10 10 10 9 9 9 9 9 10 12 13 14 16 16 17 18 19 19 19
2 1 4 6 6 7 8 9 4 1 1 5 4 4 4 5 5 5 4 3 5 3 3 9 12 12 18 20 18 15 12 13 14 12 11 10 10 10 9 9 9 9 9 9 8 6 6 6 8 11 14 16 17 19 19 20 21 20 18 15 12 11 10 11 11 11 10 10 10 9 9 9 9 9 9 10 11 12 14 15 15 17 18 18 19 19
4 3 5 8 10 11 12 11 4 2 5 9 8 6 6 6 6 7 6 7 5 4 6 12 8 8 17 20 17 17 15 15 15 14 14 13 12 11 10 10 11 10 10 9 8 8 8 8 8 9 13 16 16 17 19 19 20 20 18 15 13 12 12 12 12 12 11 10 10 9 9 8 8 8 9 10 10 12 13 14 15 17 17 18 18 18
4 4 4 4 8 10 11 13 7 3 7 7 8 12 8 7 9 12 14 10 8 6 13 11 4 8 16 19 19 19 15 14 16 15 14 13 13 13 11 10 11 11 11 10 9 9 9 9 8 9 12 15 16 17 18 19 20 20 18 16 14 13 12 12 13 12 11 11 10 9 8 8 8 8 8 9 10 11 12 13 14 16 16 17 16 16
3 4 2 0 7 9 10 13 7 4 6 6 11 14 8 9 13 15 14 10 8 12 19 17 14 17 19 20 20 19 16 14 13 12 12 14 14 13 12 11 11 11 11 10 10 9 8 8 8 9 11 14 16 18 19 20 21 21 19 17 15 14 13 13 13 13 12 12 11 9 9 8 7 7 7 8 9 10 11 12 14 15 15 16 15 15
1 3 1 3 5 8 6 7 4 3 5 7 14 14 7 9 11 11 10 7 6 12 17 14 13 16 19 17 15 14 13 11 11 11 12 13 12 11 12 12 11 12 11 11 10 9 8 8 7 8 10 14 18 19 20 21 22 22 20 17 15 14 14 14 14 14 13 13 11 10 9 8 7 6 6 7 8 10 10 11 12 13 14 14 14 14
1 3 2 5 5 7 4 6 8 6 5 6 15 15 7 7 7 7 7 6 8 9 8 5 6 11 13 10 8 11 12 11 13 13 11 12 11 10 11 13 13 13 12 11 10 8 8 8 8 9 12 16 19 20 21 22 22 21 20 17 15 14 14 14 15 15 15 13 12 11 10 8 7 6 6 6 7 9 9 10 11 11 12 12 12 13
3 1 2 4 3 6 6 7 9 8 6 6 10 8 5 6 5 4 5 8 10 7 3 4 7 8 9 8 10 15 15 15 15 9 7 11 15 13 12 13 14 14 13 12 10 9 8 8 9 12 16 18 20 22 23 23 22 22 20 16 13 13 14 15 16 16 15 14 13 12 11 9 8 6 5 6 6 7 8 9 10 10 10 10 11 12
3 3 0 0 1 6 9 9 8 7 5 6 7 6 4 8 8 8 8 10 11 8 5 8 9 10 13 12 13 15 16 17 15 8 6 10 12 13 14 13 13 13 12 11 10 9 8 8 11 15 18 20 22 22 21 22 22 20 17 13 13 14 15 16 16 17 17 15 14 13 12 10 8 6 5 5 5 6 7 8 9 8 8 8 9 11
3 3 1 1 2 5 7 7 8 5 5 10 8 3 5 7 7 9 11 12 10 10 10 13 14 15 16 13 12 14 15 18 16 10 10 13 11 11 13 13 13 13 12 11 10 9 9 9 12 15 18 21 21 20 20 21 21 19 16 14 14 15 16 16 17 18 18 17 16 14 13 11 9 7 6 5 4 5 6 7 7 7 7 7 8 10
5 4 2 1 2 3 4 4 3 7 11 14 11 2 2 1 2 1 7 12 11 8 10 12 16 16 15 13 12 12 11 15 16 9 10 14 12 9 10 12 12 12 11 10 10 10 11 13 16 19 21 21 20 20 21 22 22 20 18 16 15 15 16 17 18 19 19 19 17 15 14 12 9 8 6 5 5 4 5 6 6 6 6 7 8 9
6 5 2 1 2 2 0 2 5 8 12 12 5 1 1 1 3 2 2 10 12 6 9 10 13 13 12 11 11 10 8 12 16 9 8 10 9 8 9 11 12 12 12 13 14 15 16 16 18 20 20 19 19 21 22 22 22 21 19 18 17 17 17 18 20 21 21 20 19 16 15 12 10 9 7 6 5 4 4 5 6 5 5 6 7 9
3 3 4 2 1 2 2 3 4 5 7 8 5 3 2 2 5 5 1 7 12 7 6 8 9 11 11 11 11 10 8 10 15 12 5 4 7 7 8 11 12 14 16 17 18 18 17 17 18 19 20 19 20 22 22 22 23 23 21 20 19 18 18 19 21 22 22 22 20 17 15 13 11 9 8 7 6 4 3 4 5 4 4 5 6 9
4 2 3 3 2 1 3 1 2 3 7 9 8 5 4 4 4 4 3 6 8 6 2 4 7 10 11 12 12 8 7 9 13 14 11 12 12 11 11 13 13 15 19 21 20 19 20 18 17 18 18 19 21 23 23 24 24 24 23 22 21 21 21 21 22 23 23 22 20 18 16 14 12 10 9 8 6 4 4 4 4 3 3 3 5 7
4 3 2 2 3 2 3 2 3 5 8 11 9 5 3 4 4 5 7 8 6 6 4 4 9 12 11 11 11 7 6 8 10 15 18 18 18 16 14 14 14 15 19 22 22 21 20 18 17 18 20 23 24 23 24 25 25 25 25 23 22 23 24 23 21 21 22 21 19 18 17 15 13 11 10 8 7 5 4 4 3 3 2 2 4 6
1 0 1 2 3 3 4 3 4 5 8 10 8 4 1 2 2 4 7 7 6 10 10 8 11 12 11 11 10 7 9 10 10 15 19 18 18 19 18 19 19 19 21 23 23 20 18 19 21 22 24 25 24 23 25 26 26 26 26 24 24 26 27 23 20 19 20 21 20 20 18 15 13 12 10 9 7 6 5 4 3 2 2 2 3 6
1 0 0 2 2 2 3 3 4 7 7 5 4 1 0 2 5 5 6 7 9 12 13 12 12 10 9 12 12 10 12 14 13 15 16 16 16 17 18 19 19 19 22 23 21 18 18 19 21 23 24 24 24 25 26 27 27 27 26 25 27 30 28 22 19 19 20 22 22 21 18 16 14 13 11 10 8 6 5 4 3 3 2 1 2 5
4 2 2 3 4 1 1 1 3 6 6 3 3 1 0 2 6 6 6 10 12 11 10 12 12 9 8 12 15 15 15 16 16 15 15 15 15 15 16 17 16 17 20 20 19 19 19 18 20 23 24 23 24 26 27 28 28 27 26 28 32 31 26 23 21 20 21 22 22 21 19 16 15 14 12 11 9 7 6 5 4 4 3 2 1 4
4 4 3 4 3 3 2 3 4 4 5 3 1 2 5 6 6 5 6 9 12 10 8 9 12 11 8 10 15 17 16 16 16 16 15 15 15 14 15 15 15 18 20 21 21 20 18 19 21 23 23 23 25 27 29 31 30 27 28 31 32 28 25 24 22 21 22 23 23 21 19 17 16 15 14 12 10 9 7 6 6 6 5 3 2 3
4 5 4 5 4 4 5 8 7 6 5 3 4 5 9 10 7 5 5 7 8 9 8 8 12 15 12 10 12 13 13 14 15 15 14 15 15 15 14 15 17 19 20 21 22 20 18 21 23 21 21 23 26 28 31 32 31 29 30 33 30 27 27 25 23 23 24 24 23 22 20 18 17 16 15 14 12 10 9 8 8 8 6 5 3 2
3 3 2 3 4 4 7 11 9 9 11 7 3 6 9 9 7 5 5 6 7 8 8 7 10 14 14 12 11 11 12 14 15 15 14 13 14 14 14 14 17 20 20 20 21 20 19 20 21 20 20 22 25 29 32 34 34 33 34 32 29 28 27 26 25 26 26 25 24 23 22 20 19 18 17 16 14 11 10 9 9 9 8 6 4 2
3 2 1 3 5 6 8 11 10 10 14 14 10 7 7 6 5 5 5 6 7 8 8 7 9 11 12 11 10 11 14 14 14 15 14 13 13 14 13 13 15 18 19 19 21 21 18 16 18 19 21 22 26 30 32 34 36 37 34 30 28 28 28 27 27 27 27 26 26 25 23 22 21 20 19 18 15 13 12 11 11 11 11 9 6 3
2 2 2 3 5 6 9 13 14 15 18 16 8 4 5 6 6 6 6 7 8 8 8 8 8 8 9 11 10 10 13 14 13 13 13 12 13 13 12 13 16 18 20 21 21 19 16 16 18 20 21 24 27 29 32 35 37 37 34 30 29 29 28 29 29 28 27 27 27 27 26 24 23 21 20 19 17 15 14 13 13 13 12 10 8 5
1 4 2 1 3 6 9 12 12 14 19 14 1 3 8 10 7 8 9 8 9 10 10 11 11 9 9 11 10 9 12 13 12 11 13 13 13 13 14 17 20 22 23 23 22 19 17 18 21 21 24 27 27 27 30 34 36 36 35 33 31 31 30 31 30 29 27 26 27 27 27 26 25 23 21 20 18 16 14 14 13 13 12 12 10 6
2 5 2 2 3 7 8 11 10 11 16 14 4 6 9 8 6 9 11 10 11 12 11 13 15 14 12 13 12 10 11 14 13 12 12 12 12 14 18 21 22 23 24 24 23 21 19 20 23 23 26 29 27 25 29 34 35 35 34 34 34 34 33 32 30 28 26 26 28 29 29 28 27 25 23 21 20 17 16 15 14 13 12 12 10 7
4 5 4 4 4 8 11 14 12 9 11 13 11 11 10 6 5 8 10 10 11 12 10 10 13 15 14 15 16 12 10 13 15 14 12 12 15 19 22 23 23 23 25 26 24 21 20 22 23 24 27 30 28 27 29 33 33 34 34 35 36 36 36 34 31 28 26 27 28 29 30 30 28 27 25 23 21 19 17 16 16 16 14 12 11 9
Wind_Direction
58 66 45 79 237 260 255 199 140 131 123 117 115 126 186 222 282 264 261 309 335 249 263 236 255 271 275 277 279 288 282 248 256 259 255 248 244 242 240 245 239 235 243 238 212 196 194 201 204 208 213 222 231 239 254 278 314 332 339 338 332 321 320 325 330 339 342 344 347 349 348 344 345 347 349 352 352 351 350 349 348 349 350 349 350 350
55 74 6 255 222 235 258 167 133 99 79 82 114 112 304 221 257 267 175 314 352 51 273 325 314 279 271 271 275 287 283 261 244 240 255 251 245 243 242 247 242 246 257 203 189 189 193 200 202 208 213 220 227 233 247 273 314 331 336 335 327 315 313 318 325 335 339 342 344 341 338 336 337 341 344 347 350 349 347 347 345 345 345 344 347 348
46 72 296 271 182 99 60 95 107 93 84 67 100 105 311 261 270 286 310 334 360 169 274 342 332 285 277 274 275 272 248 255 244 233 254 256 251 247 239 247 248 252 246 198 193 192 196 201 203 209 216 222 228 234 245 270 311 327 333 332 321 308 307 311 318 329 331 334 339 335 335 333 330 336 343 343 347 347 343 343 341 340 341 341 344 346
59 17 309 181 142 99 62 51 75 80 87 87 94 111 270 295 2 287 310 338 332 223 276 303 302 283 288 295 284 267 242 265 273 256 257 247 245 248 244 251 247 245 238 213 209 203 200 202 204 210 217 221 225 230 240 260 297 319 331 327 316 306 303 306 312 320 323 326 330 331 332 332 328 334 343 344 345 345 341 341 341 341 342 342 344 346
99 263 81 89 102 103 84 42 67 94 326 318 132 144 241 282 228 229 278 322 319 322 294 310 314 289 306 328 290 286 306 294 305 304 284 258 245 258 269 265 246 241 238 220 215 208 202 204 206 212 217 219 221 228 235 249 286 314 325 322 313 304 300 304 308 312 317 322 324 327 331 334 335 339 346 346 343 343 341 339 340 342 343 344 345 345
84 171 147 96 48 73 86 56 80 139 319 319 232 193 217 238 243 269 306 350 14 358 307 12 1 293 313 315 271 295 339 308 320 325 290 279 272 264 264 262 252 245 239 225 221 211 204 206 208 213 216 217 222 228 233 245 277 305 316 315 308 300 298 301 304 307 313 320 324 329 333 336 338 339 344 344 339 337 337 337 338 340 342 343 344 344
53 59 111 114 76 58 59 49 221 138 94 2 236 193 190 170 191 267 338 47 48 281 290 55 106 260 311 304 269 302 332 299 304 300 276 276 277 256 248 255 257 253 244 232 231 217 206 206 206 210 214 217 223 227 228 240 264 288 304 308 299 294 295 298 300 303 309 316 322 326 328 331 334 332 335 338 336 334 334 334 336 338 340 342 342 343
212 1 30 45 67 61 47 6 213 142 103 296 227 142 149 147 181 195 95 84 229 274 324 27 108 233 294 279 272 325 324 297 300 293 280 275 266 253 250 252 252 253 246 233 231 219 209 207 205 209 215 219 223 223 224 234 252 271 291 299 291 289 291 294 296 298 304 312 317 320 319 322 329 329 331 334 334 334 334 333 335 337 338 341 342 342
176 7 18 52 61 64 213 228 190 160 99 276 195 137 158 163 172 156 99 95 359 357 321 320 96 226 274 269 296 346 305 290 288 279 278 277 268 258 255 256 254 256 249 233 231 223 215 210 209 213 217 219 219 219 225 234 246 262 280 288 284 283 286 288 291 295 301 307 310 313 312 317 327 331 331 332 332 334 334 334 335 336 337 339 341 342
164 219 183 127 88 229 238 227 184 167 331 218 146 104 67 76 87 81 89 115 42 14 267 258 133 217 275 278 305 330 253 263 267 269 270 267 270 265 259 262 263 266 262 241 237 231 222 216 214 215 216 217 216 218 227 233 239 253 270 278 277 279 280 283 287 293 299 304 306 307 309 316 326 330 332 332 332 335 335 334 335 336 336 337 338 340
317 359 175 133 138 207 189 177 180 153 120 126 114 73 51 37 43 60 65 94 62 313 260 261 275 83 294 283 265 236 226 229 244 275 282 276 281 272 258 259 261 269 269 248 245 241 232 224 218 215 213 214 215 217 223 229 235 247 262 270 273 275 274 277 284 290 297 302 304 305 309 317 325 330 332 332 332 334 336 334 335 335 335 335 336 337
352 36 250 226 206 147 109 106 47 42 89 108 89 59 42 346 8 28 356 40 76 272 262 269 299 142 241 268 251 244 258 241 227 257 271 273 281 275 265 263 261 262 261 250 247 242 232 222 215 210 211 213 213 215 221 228 233 241 254 264 270 272 270 272 279 288 294 302 305 306 311 318 324 329 331 330 330 333 335 334 334 335 335 335 335 335
296 212 272 302 238 77 88 75 1 357 23 58 57 51 42 350 3 9 329 1 221 249 241 244 315 252 231 253 258 265 272 258 230 229 241 251 263 270 271 276 284 282 267 257 248 236 225 216 211 208 210 212 212 216 222 227 230 236 249 259 268 272 269 269 277 285 292 301 307 308 313 318 323 325 328 330 331 334 336 334 333 335 335 334 334 334
333 298 333 43 303 13 82 90 352 324 5 40 74 77 71 55 23 324 285 317 283 269 273 291 308 278 274 269 244 244 258 260 242 229 233 243 254 265 274 285 297 291 277 263 246 236 227 221 215 211 211 213 215 219 222 226 227 232 245 257 268 273 267 267 277 284 291 301 308 311 314 317 321 323 327 332 333 335 336 334 335 334 334 332 331 331
22 307 315 43 301 6 65 116 135 123 68 45 160 122 112 141 129 269 245 250 283 291 296 306 257 213 249 276 239 231 255 270 263 248 252 258 256 264 281 288 288 284 280 265 246 242 235 228 221 216 216 216 218 220 222 224 225 229 243 258 269 272 266 266 275 282 290 301 309 312 313 315 319 321 326 332 335 336 335 335 336 335 334 332 330 329
65 266 270 312 300 55 49 230 111 97 93 231 169 98 77 170 149 191 201 190 241 311 293 271 237 212 225 276 279 286 294 292 289 281 283 276 270 278 284 279 277 280 282 267 250 249 241 232 225 220 219 219 219 220 221 222 222 225 240 258 270 271 265 264 273 280 290 302 309 310 311 314 317 320 325 331 335 336 335 337 337 336 336 334 331 330
29 284 290 341 14 65 62 242 57 60 124 107 110 151 231 163 122 111 242 350 70 7 280 270 267 283 321 295 298 348 339 317 327 319 302 286 289 299 279 274 277 279 279 270 254 249 244 232 225 223 220 218 218 218 219 221 220 224 238 256 268 267 260 261 270 278 288 300 307 307 309 313 316 321 327 332 336 336 336 338 338 337 338 337 334 333
136 282 301 7 99 5 283 185 46 46 133 100 176 213 200 110 94 98 332 348 37 288 276 302 274 290 351 306 310 352 337 309 311 311 306 299 295 285 270 270 276 276 277 275 263 251 246 233 226 223 221 220 219 219 221 221 217 222 237 254 264 263 259 260 265 273 285 298 305 305 306 311 315 323 329 333 336 336 337 338 340 340 339 338 337 335
112 289 303 314 164 308 336 76 12 352 84 100 192 179 114 132 200 57 96 322 353 298 287 304 292 276 219 233 286 313 299 292 297 300 302 292 278 268 268 271 276 280 282 279 270 256 244 233 227 223 219 220 219 220 222 218 215 221 234 251 261 260 259 259 262 270 282 295 302 302 304 308 315 324 330 334 335 337 339 339 341 341 338 339 338 336
88 90 288 282 215 315 356 100 243 317 31 39 32 19 31 144 170 181 130 162 204 270 286 315 327 280 230 210 223 265 277 283 285 289 286 273 264 260 265 271 276 278 279 276 268 258 243 234 230 223 219 219 217 218 218 213 213 221 233 247 255 255 255 257 261 269 279 292 298 298 300 304 313 323 330 334 336 338 341 342 341 340 339 339 338 337
56 110 253 294 321 315 296 221 198 182 151 95 61 318 319 83 153 216 75 131 143 177 233 304 313 277 257 205 203 251 271 269 259 264 272 270 268 265 264 269 275 276 275 272 265 256 246 239 233 225 221 220 217 216 215 211 214 221 231 243 249 251 253 256 261 267 276 287 294 295 297 301 311 323 329 334 337 339 342 342 342 340 339 339 338 340
63 144 222 295 324 273 247 252 205 182 170 159 179 195 179 145 130 143 302 306 111 156 186 181 287 277 267 183 204 240 253 258 251 245 263 276 277 277 276 271 270 272 272 270 265 257 246 237 231 223 219 216 213 212 211 211 215 221 230 239 246 249 253 258 261 264 273 285 291 292 295 300 311 323 330 335 337 340 343 342 342 341 338 338 340 341
141 105 151 272 267 252 266 297 350 178 157 142 179 180 145 129 125 141 230 257 196 173 171 114 268 272 259 181 199 227 229 251 257 240 262 280 278 279 284 280 274 271 269 269 269 258 245 238 229 220 216 212 211 212 210 212 216 222 230 236 242 249 254 260 261 262 271 282 288 290 292 299 309 321 329 335 337 340 344 343 342 342 340 338 340 342
80 85 7 284 284 304 317 334 15 46 83 150 242 149 138 149 136 152 177 185 202 205 157 93 267 269 268 199 200 243 256 273 273 250 258 278 285 282 282 284 284 280 277 277 274 262 246 237 226 217 215 211 211 212 211 213 217 222 229 233 240 249 255 258 258 259 269 279 285 287 289 296 306 319 328 335 338 340 344 344 343 343 341 340 342 345
287 208 47 336 329 337 343 350 348 343 257 224 242 188 149 119 101 116 144 114 256 219 168 154 251 261 270 283 258 278 295 296 288 267 253 266 284 290 290 290 289 285 286 284 277 265 240 226 219 216 216 211 211 212 212 214 218 221 227 234 240 247 253 254 253 257 266 276 281 282 286 294 304 317 329 336 338 340 344 345 344 343 342 343 346 348
240 206 128 94 312 304 304 306 298 269 249 248 225 206 199 141 130 151 138 118 242 236 162 171 237 266 287 299 294 291 298 299 297 295 284 271 275 284 288 292 292 288 286 282 277 266 240 231 226 221 219 215 213 214 214 215 218 221 227 233 240 248 252 250 250 254 261 270 276 278 283 291 303 316 327 335 338 340 345 345 343 342 343 345 348 350
92 224 211 188 199 223 243 256 253 119 270 271 263 232 205 183 152 126 109 173 202 180 197 227 238 272 290 289 292 300 305 303 303 306 304 296 289 286 284 287 290 286 282 280 278 269 249 239 234 226 222 219 217 217 217 217 218 220 224 231 238 248 251 247 247 250 254 263 269 273 279 287 301 314 324 333 337 340 345 344 341 342 345 348 350 351
86 279 241 203 222 239 249 264 295 26 277 265 271 256 208 183 157 154 194 214 161 126 263 251 221 243 272 277 286 294 298 302 304 303 302 301 297 293 290 289 288 284 282 280 271 261 250 242 238 229 224 221 219 219 219 219 220 220 224 231 238 245 247 244 244 245 249 255 260 265 272 282 297 309 320 329 334 339 343 341 340 342 346 351 352 348
124 263 248 196 250 265 271 281 288 277 268 264 266 264 237 181 176 196 220 214 159 197 256 260 237 251 268 277 283 285 288 294 295 297 299 298 294 292 291 289 286 282 282 280 272 259 248 244 240 229 224 221 218 218 217 215 216 217 222 229 236 242 242 240 240 240 243 248 252 257 262 274 290 302 315 325 332 338 341 341 340 342 347 353 352 346
146 259 287 37 291 283 276 283 281 241 267 279 264 257 228 195 203 213 231 225 196 234 256 267 280 281 276 274 276 282 289 289 287 292 294 290 290 292 292 289 284 282 281 278 273 262 249 245 242 232 225 219 216 215 213 212 213 215 220 227 233 238 237 235 236 236 238 243 247 251 253 264 281 293 310 322 329 336 339 340 340 342 348 354 352 348
167 272 347 65 317 291 283 313 336 216 234 269 276 267 218 204 225 227 239 235 216 247 261 269 281 278 272 272 275 278 281 285 289 291 289 286 287 290 293 292 285 284 283 278 274 268 255 247 240 230 223 220 218 216 212 212 214 215 220 225 231 234 233 233 234 234 236 241 244 244 246 254 267 282 303 316 325 332 336 338 339 343 350 354 353 350
136 280 3 51 339 292 297 346 332 286 245 261 279 278 235 200 216 221 227 208 194 226 259 276 269 264 270 287 297 282 279 285 286 284 287 294 296 289 287 290 288 285 283 281 277 268 255 245 234 226 224 222 219 216 214 213 212 213 217 223 229 232 230 231 233 233 235 239 241 239 240 248 256 269 292 307 320 329 332 336 340 345 353 357 357 355
137 136 4 35 327 276 292 325 318 317 331 295 267 249 205 206 218 226 244 226 205 197 200 233 244 264 288 309 306 297 297 294 287 286 295 300 301 297 285 282 284 283 280 279 276 266 255 243 232 227 226 223 220 219 219 215 210 212 217 222 227 228 228 231 232 232 234 237 237 236 237 244 250 259 280 297 315 324 328 335 340 347 356 1 1 360
115 106 75 90 232 276 299 326 334 341 334 276 235 184 211 260 240 221 243 239 215 197 216 253 270 285 291 292 290 291 292 289 291 305 305 289 289 291 287 280 278 279 277 273 268 261 254 244 236 231 227 226 225 223 221 216 213 215 217 218 223 224 227 231 230 230 233 235 235 234 235 241 245 252 270 286 306 319 326 334 340 348 358 5 6 4
112 106 171 154 163 272 311 357 354 327 258 257 272 246 233 245 209 212 253 261 238 217 234 265 275 274 277 281 279 281 285 288 295 301 286 276 266 265 277 279 275 276 275 271 265 258 250 237 228 226 224 225 225 219 213 210 209 209 209 212 218 222 225 229 229 230 232 234 233 232 233 238 243 247 261 276 291 311 324 332 339 348 356 6 9 4
137 139 170 154 178 271 339 23 324 291 281 287 307 340 167 163 121 214 285 282 264 220 209 246 262 263 272 280 277 283 291 295 298 281 246 256 259 248 257 268 270 270 266 261 254 248 245 236 226 223 223 222 217 210 206 206 204 203 206 211 215 220 224 226 228 230 231 232 232 230 230 236 240 244 253 261 273 299 321 329 338 344 350 3 10 7
136 140 173 230 215 188 184 259 271 307 310 304 317 76 139 107 114 123 300 291 284 243 193 229 262 270 277 282 285 298 310 308 309 296 223 230 250 248 248 257 266 270 269 264 259 256 254 248 237 229 224 217 211 207 205 204 202 202 204 208 211 216 220 223 226 229 231 232 233 229 229 233 235 240 248 251 261 286 311 327 338 338 342 356 4 6
118 157 175 192 248 115 95 301 313 335 305 282 274 266 253 184 168 154 136 289 288 278 211 225 263 281 292 299 304 316 337 326 311 305 284 265 279 282 277 272 270 271 271 270 266 261 256 249 237 227 219 212 209 208 206 203 202 201 202 205 209 213 216 220 227 231 231 233 234 229 227 231 233 237 243 247 256 275 299 323 335 332 336 353 359 2
42 28 118 135 291 50 109 226 260 249 263 272 274 264 247 216 169 113 19 288 278 295 262 224 271 293 300 302 306 322 344 325 303 301 315 323 316 310 302 293 286 282 279 277 269 260 254 247 232 220 212 208 208 208 205 203 202 200 201 206 209 211 214 219 229 233 232 233 234 229 226 229 231 235 240 246 256 269 293 317 329 325 332 349 353 355
34 11 67 170 250 210 143 218 251 237 253 271 283 282 248 202 129 60 337 292 281 312 312 270 294 305 301 299 308 314 302 290 289 298 309 317 316 310 302 295 291 289 287 285 277 265 256 242 221 208 206 208 211 209 204 203 201 200 203 207 208 210 216 224 234 238 235 232 230 227 226 227 229 233 236 241 253 266 284 310 319 312 321 343 350 348
41 350 153 176 212 189 177 230 270 263 256 263 277 300 239 179 67 9 302 286 314 325 318 307 306 307 304 304 309 302 286 280 280 291 301 308 310 306 302 298 295 291 289 287 281 268 251 233 220 215 216 217 214 208 204 201 199 201 206 206 207 215 223 229 236 236 230 226 224 223 223 225 228 232 234 235 244 256 270 292 296 281 294 332 347 344
235 171 90 147 174 187 178 203 276 285 270 231 208 213 70 326 326 307 280 297 318 317 315 314 310 309 309 306 301 293 293 296 293 293 298 302 302 301 302 304 303 299 296 292 282 264 244 231 226 223 224 221 213 208 205 201 200 204 206 206 214 224 229 228 229 229 224 220 221 221 220 222 225 228 230 230 235 243 258 273 266 245 244 291 338 342
186 171 252 207 179 147 77 36 302 288 272 193 137 59 323 288 303 305 307 313 312 311 316 314 311 317 317 306 303 302 304 305 303 301 301 301 299 297 299 303 304 301 299 295 284 264 243 233 231 229 227 221 213 210 206 201 203 206 206 212 223 229 227 224 224 223 219 217 218 219 218 219 222 224 225 227 230 235 244 252 237 219 210 215 296 332
189 172 245 252 191 131 150 232 244 247 235 185 117 300 258 254 284 312 317 308 307 315 323 314 310 316 316 303 303 307 309 307 305 307 309 306 304 302 302 304 304 301 299 296 288 275 251 236 237 237 232 223 215 212 208 205 206 207 211 220 227 226 221 221 220 216 214 215 216 216 214 214 218 222 223 224 227 230 234 236 222 208 202 203 238 317
220 188 210 245 221 177 217 249 262 277 273 219 177 240 270 278 289 303 298 295 304 316 321 318 314 315 317 311 305 305 307 306 307 310 310 306 305 305 306 307 304 302 301 297 293 285 260 244 243 242 237 228 219 215 213 211 209 210 218 225 226 221 218 217 212 208 210 212 214 213 212 211 214 218 221 222 225 228 229 228 216 202 199 202 215 293
255 219 207 248 267 275 265 263 272 296 300 294 241 240 265 281 294 312 308 295 297 308 312 312 310 309 314 317 313 308 306 306 308 309 306 304 306 307 308 307 305 305 304 300 297 290 271 254 249 246 241 235 225 219 218 217 215 217 224 227 222 219 218 213 206 206 207 209 211 211 210 210 211 213 217 219 223 227 227 224 215 203 198 199 202 263
304 268 235 257 287 304 289 283 296 302 297 301 300 277 266 276 291 306 310 296 295 302 301 299 300 302 306 309 309 306 305 305 308 309 308 310 311 311 312 310 307 308 307 304 302 297 278 256 249 247 243 240 232 224 222 221 221 224 227 226 221 219 216 210 206 205 204 206 208 208 208 209 210 211 214 215 218 221 221 221 216 206 200 198 201 231
315 304 270 250 265 271 272 285 301 302 296 298 299 286 308 324 317 310 309 302 301 302 300 301 305 304 305 307 307 303 301 303 306 306 308 314 314 313 314 312 309 310 308 307 307 300 278 255 249 247 245 244 239 231 226 226 226 227 225 223 221 217 212 208 207 205 204 205 205 205 207 209 210 212 213 214 217 219 220 220 218 213 207 199 194 214
303 296 276 244 276 268 268 285 302 305 301 301 338 59 338 331 333 330 324 317 314 315 317 318 315 306 298 300 303 304 302 301 303 305 307 311 312 312 313 312 312 311 308 307 308 300 279 262 256 252 251 252 248 238 232 231 231 228 223 220 219 214 209 207 206 204 204 204 203 203 205 207 210 212 213 214 217 219 223 225 223 221 217 202 190 213
278 275 230 123 280 274 284 300 309 307 300 300 338 19 337 326 340 336 328 325 322 319 320 320 316 312 305 301 303 309 305 303 306 310 309 307 307 309 309 310 311 310 308 309 308 301 285 271 263 258 257 258 255 246 240 237 235 230 224 219 216 213 209 206 202 199 201 201 200 202 204 206 208 210 212 214 216 216 219 222 223 222 219 206 201 227
219 227 176 157 244 269 285 296 299 296 291 298 321 335 325 331 358 333 314 312 311 308 309 313 312 313 314 310 308 305 297 299 306 310 309 305 304 305 307 308 309 308 307 307 306 300 291 282 273 264 261 262 259 251 245 243 239 232 225 219 216 214 210 205 199 195 197 199 200 202 205 205 206 208 210 212 215 215 215 215 215 217 218 217 221 236
Height
858 859 866 868 870 874 878 883 882 881 881 877 876 873 873 872 865 865 869 878 882 872 866 870 869 863 855 846 840 840 845 843 840 840 839 839 838 838 837 835 834 834 833 833 834 836 837 838 838 838 838 838 837 836 836 836 834 833 831 830 830 829 828 827 825 824 823 821 820 818 818 817 816 815 813 811 809 807 805 803 802 800 798 797 795 793
860 865 875 876 878 882 883 889 888 883 882 880 876 870 873 876 867 866 873 877 881 873 866 872 870 857 850 844 838 841 841 835 833 834 832 833 836 836 835 833 831 832 833 833 833 834 835 835 835 836 836 835 835 834 834 834 832 831 830 828 828 828 827 826 824 823 822 821 820 818 818 817 815 814 811 810 808 806 805 803 801 799 797 795 794 792
864 869 876 879 885 887 888 892 885 878 880 878 878 874 870 875 872 868 874 878 880 874 863 868 866 850 843 841 836 837 836 831 833 834 830 831 832 832 832 830 829 830 830 831 831 832 832 833 833 833 833 833 832 832 832 831 830 829 828 827 827 827 826 825 823 822 821 820 820 818 817 816 814 813 810 809 807 805 804 802 801 798 796 794 793 791
864 869 876 884 887 881 880 887 880 875 879 877 876 873 869 876 874 863 868 877 879 878 871 869 868 851 839 834 827 833 838 834 836 835 833 834 831 828 829 828 827 826 826 828 829 830 830 830 831 830 830 831 830 830 830 829 828 827 826 826 826 826 825 824 823 821 820 819 819 817 816 815 813 811 809 807 806 804 803 801 799 797 795 793 791 790
867 873 882 885 882 875 872 876 876 871 872 876 875 872 871 875 874 868 873 879 876 881 882 869 856 841 833 829 820 828 839 831 831 832 826 828 830 828 828 826 825 824 823 825 825 826 827 826 827 827 828 828 827 827 827 827 826 825 825 825 825 825 824 823 822 820 819 818 817 816 815 813 812 809 807 805 803 802 801 799 798 796 794 792 790 788
870 881 886 878 874 873 870 871 876 873 867 871 873 874 874 873 875 876 877 875 863 863 875 870 852 834 829 829 821 826 833 823 825 829 819 819 826 827 826 822 821 822 821 822 822 822 823 823 824 824 825 825 824 824 825 825 824 824 824 824 824 824 823 822 821 819 818 817 816 814 813 812 809 807 805 803 802 801 800 798 796 794 792 791 789 787
871 881 883 873 869 871 871 872 877 878 869 867 873 878 879 878 879 879 874 868 856 855 871 875 860 846 836 826 823 832 832 821 822 823 815 817 822 823 823 820 818 818 818 818 819 819 819 819 821 821 821 821 821 822 823 822 822 822 822 822 822 822 821 820 819 818 817 815 814 813 812 811 808 806 804 803 802 800 799 797 795 794 792 790 788 786
869 871 873 872 869 870 871 869 875 881 869 864 878 883 880 879 879 879 873 866 867 866 870 874 866 862 852 831 831 842 832 819 817 814 811 813 816 819 819 818 816 814 813 815 816 816 816 816 816 817 817 818 819 820 820 820 820 820 820 820 821 820 819 818 817 817 815 814 813 812 811 810 807 805 803 801 800 799 797 796 794 792 791 789 787 785
871 866 868 871 870 869 868 869 876 880 868 868 885 887 883 884 881 881 874 868 882 874 857 866 870 865 853 831 833 843 829 817 813 809 809 809 810 813 813 814 814 811 811 812 812 812 812 812 812 813 814 815 816 817 818 818 818 819 819 819 819 819 818 817 816 815 814 812 811 811 810 808 806 804 802 800 799 798 796 794 792 791 789 788 786 784
871 871 873 872 870 869 868 874 879 875 869 877 891 889 887 890 885 884 876 869 880 868 848 862 871 862 849 827 824 832 823 815 811 807 808 809 810 810 809 809 809 809 811 810 810 810 808 809 809 810 812 813 814 815 815 816 817 817 817 817 817 817 816 815 814 813 812 811 810 810 808 806 804 802 800 799 797 796 794 792 791 789 788 786 784 783
875 880 880 875 871 872 873 881 886 879 876 883 887 882 880 883 882 883 883 877 869 855 853 870 873 866 855 830 818 820 814 809 808 806 806 806 808 807 805 806 805 807 809 809 809 808 807 808 808 809 810 811 812 813 813 814 814 815 815 816 815 815 815 813 812 811 810 810 809 808 807 805 803 801 799 797 795 794 792 791 789 787 786 785 783 782
874 874 873 874 874 877 874 876 885 887 886 884 876 868 863 866 870 869 870 872 861 849 861 879 877 872 862 833 813 811 811 812 811 807 804 803 804 803 802 802 804 807 808 807 807 806 807 807 807 808 807 808 810 810 811 811 812 813 813 814 814 813 813 812 811 810 809 809 808 807 806 803 802 800 798 797 795 793 791 789 788 786 785 783 782 780
864 864 869 873 875 879 870 864 873 880 879 871 864 861 858 861 865 859 857 865 861 853 867 883 876 866 856 831 813 809 806 806 811 809 805 804 804 801 800 800 803 807 806 806 805 804 805 805 803 804 804 805 807 806 808 809 810 811 811 812 812 811 812 811 810 809 808 807 806 805 804 802 801 799 797 796 794 792 790 789 787 785 783 782 780 779
856 860 866 866 868 876 870 860 862 866 867 864 864 865 864 870 875 868 871 878 868 857 870 889 879 857 840 820 809 807 799 798 807 811 809 808 806 803 803 805 806 806 804 803 803 802 802 801 800 801 801 802 803 804 806 807 808 809 810 810 810 810 811 810 809 808 807 806 805 803 802 801 800 798 796 795 793 791 790 788 786 785 783 782 780 778
863 857 861 862 866 873 871 869 868 868 871 875 881 876 866 872 875 871 872 870 867 867 874 882 869 843 825 808 801 804 802 804 810 813 815 812 811 811 809 809 806 802 801 800 800 800 798 797 798 798 799 799 800 802 803 805 806 807 809 809 809 809 809 809 808 807 807 805 804 802 801 800 798 797 795 794 792 790 789 787 786 784 783 781 779 778
873 861 866 873 876 876 872 878 881 872 870 883 891 877 866 872 872 877 889 888 891 890 878 869 853 836 824 806 803 809 804 806 810 810 812 807 806 812 808 803 801 798 798 797 797 796 794 794 795 795 796 797 798 800 801 803 804 806 807 807 807 807 807 807 807 806 805 804 803 801 800 799 797 796 794 792 791 789 788 786 784 783 781 780 778 777
871 860 870 877 877 881 880 880 883 873 866 878 881 870 877 889 876 875 895 908 912 895 871 861 844 831 829 806 797 805 797 795 800 801 803 801 801 806 800 795 796 795 794 794 793 793 791 792 793 793 794 794 796 797 798 801 802 804 805 805 805 805 805 805 804 804 804 803 802 800 799 797 796 795 793 791 790 788 787 785 783 782 780 779 777 775
879 863 869 877 870 878 890 883 880 883 876 872 871 871 885 893 883 879 885 888 895 884 865 860 846 835 839 817 795 798 795 791 795 795 798 798 796 797 794 792 793 792 792 792 790 790 789 790 790 790 791 792 793 795 796 799 801 802 803 803 803 803 802 802 802 802 801 801 800 799 798 797 795 793 792 790 789 787 786 784 782 781 779 777 776 774
892 867 864 882 876 875 889 880 871 881 884 875 873 879 881 874 872 882 882 873 880 880 863 859 860 850 841 822 799 793 794 794 795 797 797 794 792 792 791 791 792 791 791 789 788 788 787 787 787 788 789 790 791 793 795 797 799 800 801 801 801 801 800 800 799 799 799 798 799 798 797 796 794 792 790 789 788 786 785 783 781 780 778 776 774 773
896 874 860 876 883 878 878 872 865 871 882 882 879 882 883 878 876 881 886 882 879 877 869 863 857 837 820 813 801 793 794 795 795 795 793 791 791 791 791 791 791 789 788 786 785 785 785 785 785 785 786 788 789 791 793 795 796 798 799 799 799 799 798 797 797 797 796 796 797 796 796 794 792 790 789 788 787 785 784 782 781 779 777 775 773 771
895 884 866 868 879 875 865 865 864 862 870 876 875 877 880 886 891 886 888 894 883 874 880 879 856 824 807 806 801 794 794 793 793 793 792 790 791 790 791 791 789 787 786 784 783 783 783 783 783 784 785 786 788 790 791 793 794 796 796 796 797 796 796 795 795 795 795 795 795 794 794 792 791 789 787 786 785 784 783 781 780 778 776 774 772 770
890 887 878 870 868 859 856 873 881 873 872 870 863 866 869 874 883 877 879 898 899 884 883 887 867 827 801 797 797 794 792 791 793 796 793 791 789 788 788 788 787 785 783 782 781 780 781 781 781 783 784 785 787 788 789 791 792 793 794 794 794 794 794 793 793 793 793 793 793 793 792 791 789 787 785 784 783 782 782 780 779 778 775 773 771 769
895 892 887 875 866 862 869 887 892 886 884 878 871 874 874 870 871 865 866 883 896 895 897 905 887 832 792 791 793 790 792 793 796 799 796 791 789 788 786 784 784 783 781 780 779 779 779 779 780 782 782 783 784 785 787 788 789 790 791 792 792 792 792 792 792 792 791 792 792 791 791 789 787 785 783 783 782 781 780 779 778 777 774 772 770 768
896 891 885 872 863 868 880 889 892 891 888 877 873 881 879 871 870 870 873 879 881 884 889 897 879 822 785 791 794 791 796 797 797 800 796 791 788 786 783 782 781 780 779 778 778 778 778 779 780 781 781 782 782 783 785 786 787 788 789 789 789 789 790 790 790 790 789 790 790 790 789 788 786 784 782 781 780 779 779 778 777 775 774 772 769 767
890 883 882 873 861 859 863 868 872 878 880 869 868 882 882 877 881 882 886 889 878 869 869 871 856 815 787 793 796 793 795 792 791 794 793 790 786 782 780 779 778 778 777 776 776 776 777 777 778 778 778 779 780 781 782 783 784 786 786 787 787 787 787 787 787 788 787 788 788 788 787 787 785 783 781 779 779 778 777 776 775 774 773 771 768 766
890 885 883 874 867 865 857 852 851 857 867 867 868 880 883 881 879 872 876 882 872 869 872 860 837 808 789 789 790 789 792 790 788 788 787 788 784 781 780 778 777 778 775 774 774 774 775 776 776 776 776 777 778 778 779 780 781 783 783 784 785 784 785 785 784 785 785 785 786 786 785 785 784 782 780 778 777 776 776 775 774 773 771 769 768 765
895 892 887 874 867 864 852 846 853 859 861 860 861 870 876 881 881 873 873 873 866 873 872 846 828 818 803 794 790 788 790 789 786 785 783 783 781 780 780 778 777 777 774 773 773 772 773 773 773 774 774 774 775 775 776 778 778 780 781 781 782 782 782 782 782 782 782 782 783 783 783 783 782 781 779 777 776 775 774 773 772 771 770 768 766 765
893 885 885 880 868 862 856 854 864 870 864 859 860 862 867 877 883 876 868 861 859 865 852 827 828 831 813 798 795 792 791 788 786 784 782 781 780 779 779 778 777 775 773 772 771 770 770 770 770 771 771 772 773 773 774 775 776 777 778 778 779 779 779 779 779 779 779 779 780 780 781 781 780 779 777 776 775 773 773 772 771 770 768 767 765 764
894 882 885 888 875 870 872 869 873 878 873 869 867 864 867 876 878 868 858 856 858 852 832 818 826 829 813 802 797 792 791 791 787 785 784 783 781 778 777 777 775 772 771 769 767 767 767 766 767 767 768 769 770 771 772 772 773 774 775 775 776 776 776 776 777 777 777 776 777 777 778 778 778 777 776 775 773 772 772 771 770 768 767 765 764 763
897 884 893 900 885 876 877 873 876 880 876 871 866 862 867 872 870 864 857 856 858 849 832 826 832 829 812 801 798 792 791 793 789 787 787 782 778 776 774 774 772 769 767 765 763 764 763 763 764 764 765 767 767 768 768 769 770 771 771 772 772 773 773 774 774 774 774 774 774 774 775 775 775 774 774 773 772 771 770 769 768 767 765 764 763 762
897 887 898 902 883 871 874 872 872 877 877 869 856 851 861 866 866 868 866 863 863 855 843 842 847 837 811 797 799 797 792 792 789 786 783 777 775 775 772 770 768 765 763 761 760 760 760 761 762 762 763 763 762 764 764 765 766 767 768 769 770 770 771 772 772 772 772 772 772 772 772 772 772 772 771 771 770 770 769 768 767 765 764 763 762 761
899 893 896 897 878 862 867 872 869 871 874 864 844 835 844 852 852 857 862 861 855 846 842 846 843 824 801 794 796 792 788 788 783 780 778 772 770 772 770 767 764 761 759 757 757 757 757 757 758 758 758 758 759 760 760 761 763 764 765 766 767 769 769 770 771 771 770 771 770 770 770 769 769 769 768 768 768 768 768 767 766 764 762 761 761 760
909 897 891 897 881 858 865 877 871 863 855 839 825 820 825 833 838 843 847 849 845 836 830 825 814 800 794 796 794 786 782 780 775 774 776 772 768 768 767 765 762 758 756 755 754 754 753 753 754 754 754 754 754 755 756 757 759 760 762 764 765 767 767 768 769 769 769 769 768 768 768 767 767 766 765 765 765 765 766 765 764 763 761 760 760 759
914 900 897 905 885 859 867 874 861 851 839 820 815 819 821 825 830 830 825 824 831 831 819 809 805 800 797 795 791 786 781 773 770 773 777 776 771 767 764 762 759 756 754 753 752 751 750 750 750 750 750 750 750 751 752 754 756 758 760 762 763 764 765 766 766 766 767 767 766 766 766 765 765 764 763 763 762 763 763 763 763 762 760 759 758 757
905 899 902 910 895 875 874 867 850 840 829 815 817 825 828 829 830 828 819 812 820 827 821 812 807 800 794 791 790 787 782 774 773 776 777 773 769 767 763 759 756 754 751 749 748 747 746 746 746 746 746 745 746 748 750 751 754 756 757 759 760 761 763 763 764 764 764 764 764 764 764 763 763 762 761 761 760 760 761 761 761 760 759 758 757 756
897 898 900 903 898 882 872 866 854 840 825 814 816 826 830 830 829 826 818 806 805 815 819 812 802 796 793 793 789 787 786 782 774 771 770 765 761 762 760 755 752 750 747 746 744 742 742 741 741 741 740 741 743 745 746 748 750 753 754 756 757 759 760 761 761 761 762 762 762 762 762 762 761 760 760 759 758 758 758 759 760 759 758 757 756 755
896 896 893 891 891 883 876 871 860 845 829 811 807 818 823 820 819 820 816 806 797 801 808 803 795 792 792 790 789 789 790 783 767 757 757 758 757 758 756 753 750 747 744 743 740 739 738 737 736 737 737 738 740 741 743 745 747 749 751 753 754 756 757 758 758 758 759 759 759 760 760 760 759 759 758 758 757 757 756 757 758 758 757 756 755 754
899 896 889 882 884 888 885 873 859 849 831 808 805 819 823 820 820 820 819 810 794 791 798 797 792 791 790 788 789 788 787 782 766 751 750 755 755 755 754 751 748 746 742 740 738 736 735 734 733 733 734 736 737 738 740 742 743 746 747 749 751 752 753 754 754 755 755 756 757 757 757 757 757 757 757 756 756 755 755 755 756 756 756 755 754 753
902 902 897 889 887 889 882 869 861 853 829 807 809 820 824 825 824 821 819 809 793 790 798 799 795 794 793 790 789 788 790 787 771 752 747 751 752 752 752 748 744 743 740 737 736 734 732 731 731 731 732 733 734 735 737 738 740 742 743 745 747 748 749 749 750 750 751 752 754 755 755 755 755 755 755 755 755 755 754 754 754 755 755 755 754 753
901 901 900 894 889 890 886 875 869 856 829 812 813 818 824 828 824 820 818 805 792 794 801 800 797 795 793 790 789 788 788 786 774 757 749 751 751 749 749 746 742 740 737 734 733 731 729 729 728 728 728 729 729 732 734 735 737 739 740 742 743 744 744 744 745 746 748 749 752 753 753 754 754 754 754 754 754 754 754 753 753 753 754 754 753 752
902 904 905 900 893 895 893 881 870 853 828 818 820 821 825 827 821 818 813 801 796 798 798 796 796 794 791 789 788 785 780 777 774 765 757 756 753 747 744 743 740 737 735 732 729 728 727 726 725 724 724 724 726 729 730 732 734 735 736 738 738 737 737 739 741 743 744 746 748 749 750 752 752 752 752 753 753 753 752 752 752 752 752 753 752 752
888 896 902 901 896 897 898 889 873 849 824 819 824 827 827 823 816 812 807 801 800 800 795 794 794 793 791 788 784 781 776 772 770 767 761 759 754 747 741 739 736 734 731 728 727 725 724 723 722 722 721 722 724 725 726 729 730 730 732 733 731 730 732 736 738 739 741 743 744 746 747 749 750 751 751 751 751 751 751 751 750 751 751 751 751 751
866 868 868 877 886 892 895 887 864 835 818 819 823 824 823 818 809 807 806 803 800 799 798 796 793 792 793 787 780 777 775 771 768 764 760 756 752 747 742 737 735 732 728 726 724 723 723 722 720 719 718 719 721 721 723 725 725 726 728 726 724 726 730 732 734 735 738 740 741 743 745 746 747 748 748 748 749 749 749 749 748 749 749 750 750 749
862 856 849 857 868 870 866 853 830 813 815 822 821 817 817 812 807 809 811 805 800 798 799 797 792 790 792 789 782 778 775 771 765 761 758 753 748 745 741 737 735 731 726 724 722 721 721 720 718 717 717 717 718 718 719 720 721 722 722 719 720 724 726 727 730 732 734 736 738 740 742 743 744 745 745 746 746 746 747 746 746 747 748 748 748 748
855 853 847 849 853 850 841 828 816 812 816 820 820 817 813 809 808 810 811 807 803 801 800 798 793 788 787 787 784 779 775 770 764 760 757 752 746 742 739 736 733 730 726 723 721 720 720 718 716 715 715 714 715 715 715 716 717 717 715 715 717 720 721 723 726 729 731 733 735 737 739 740 741 742 742 743 743 744 745 744 744 745 746 746 746 746
854 858 854 848 845 842 833 821 818 818 814 813 817 816 810 807 808 809 809 808 806 802 800 799 795 789 785 784 782 778 773 768 764 760 756 751 745 741 737 733 730 728 725 722 720 718 717 716 715 714 713 712 712 712 711 711 711 710 710 711 714 716 717 720 722 724 727 730 732 734 736 737 738 739 739 740 741 741 742 742 742 743 743 744 745 744
855 858 855 847 843 842 832 819 818 820 814 811 812 810 808 809 809 808 808 806 804 802 799 797 795 790 786 783 781 777 772 768 765 760 754 750 745 740 736 733 729 725 723 721 719 717 715 715 713 711 710 709 707 707 707 707 706 705 706 709 711 713 714 717 718 720 723 726 729 731 732 733 734 735 736 737 738 739 739 740 740 740 741 742 743 743
854 855 852 847 845 843 833 821 819 818 811 808 809 807 807 809 808 808 808 805 802 800 796 793 792 789 784 781 779 777 772 767 765 761 754 749 745 740 737 733 729 725 721 718 716 715 713 712 710 708 706 704 703 703 704 702 701 701 703 705 707 709 711 713 714 716 719 722 724 726 728 730 730 731 733 734 735 735 736 737 737 738 738 740 741 741
856 854 850 848 846 842 832 824 823 820 808 802 806 810 809 808 808 806 805 803 801 798 794 791 789 787 785 780 777 776 772 766 763 760 756 750 745 741 737 732 729 725 721 717 714 712 710 708 707 705 703 700 699 700 699 697 697 697 699 701 703 705 707 708 711 713 715 718 721 723 724 726 727 727 729 730 731 732 733 734 734 735 736 737 738 739
855 850 847 849 847 839 829 823 824 823 812 801 804 811 811 810 809 806 803 802 800 796 794 791 787 784 783 780 777 776 771 765 760 758 755 751 746 742 737 732 728 723 719 716 713 709 707 705 703 701 699 696 696 697 695 693 693 693 695 697 698 700 702 704 707 710 713 715 717 719 720 721 722 724 726 727 728 729 730 731 732 732 733 734 736 737
848 843 841 843 841 833 826 822 823 824 818 809 808 811 811 809 809 807 804 802 799 796 795 793 788 784 780 777 776 775 771 765 760 757 754 750 746 741 737 732 728 722 718 715 711 707 704 702 700 698 695 692 692 692 690 689 689 689 691 692 693 695 697 699 702 706 708 710 712 713 715 717 718 720 721 722 724 725 726 728 729 730 731 732 733 735